Tracking 31032 objects as of 14-Jul-2025
HD Live streaming from Space Station
objects crossing your sky now

CZ-6A DEB

Track CZ-6A DEB now!
10-day predictions


NORAD ID: 55216
Int'l Code: 2022-151WH
Perigee: 652.0 km
Apogee: 769.0 km
Inclination: 98.6 °
Period: 98.8 minutes
Semi major axis: 7081 km
RCS: Unknown
Launch date: November 11, 2022
Source: People's Republic of China (PRC)
Launch site: Taiyaun Space Center, China (TSC)

Note: This is SATELLITE DEBRIS
Your satellite tracking list
Your tracking list is empty




NASA's NSSDC Master Catalog

Two Line Element Set (TLE):
1 55216U 22151WH  25194.37351112  .00005539  00000-0  11905-2 0  9994
2 55216  98.6241 230.4947 0082645 271.6882  87.4850 14.56857944134945
Source of the keplerian elements: AFSPC